Simultaneous Nadir Overpasses (SNOs) Predictions

Prediction of SNOs between GOES-17 and LANDSAT-8 Satellite Orbit:

Table of predicted SNOs for the next 14.0 days since TLE Epoch: 3/5/2022
Index Date Time (GOES-17) GOES-17 Lat,Lon LANDSAT-8 Lat,Lon Distance(km) Time Diff (sec)
1 03/06/2022 19:07:36 0.04,-137.23 -0.57,-134.24 339.59 80
2 03/07/2022 07:31:40 -0.04,-137.22 -0.54,-139.43 251.54 80
3 03/09/2022 07:16:49 -0.04,-137.22 0.15,-136.49 83.60 80
4 03/11/2022 07:04:36 -0.04,-137.20 0.72,-133.52 417.88 80
5 03/11/2022 19:25:52 0.04,-137.20 0.34,-138.69 168.46 80
6 03/13/2022 19:16:20 0.03,-137.18 -0.30,-135.73 165.18 80
7 03/14/2022 07:37:44 -0.03,-137.17 -0.80,-140.92 426.49 80
8 03/15/2022 19:04:07 0.03,-137.15 -0.89,-132.77 498.28 80
9 03/16/2022 07:22:51 -0.03,-137.14 -0.21,-137.96 93.48 80
10 03/18/2022 07:13:19 -0.03,-137.11 0.44,-135.01 239.25 80
11 03/18/2022 19:31:54 0.02,-137.10 0.67,-140.16 347.67 80
